Wind_Speed
27 28 30 29 30 27 23 21 19 21 20 17 15 13 13 17 19 17 16 15 16 7 19 22 22 12 13 8 2 9 8 3 3 4 2 2 3 2 3 7 5 3 2 2 4 3 7 2 7 1 2 18 10 1
29 32 25 26 24 22 20 19 19 21 20 20 16 14 13 18 16 16 17 16 16 20 13 17 23 18 17 15 14 5 4 2 2 2 1 2 3 3 3 3 1 3 3 1 5 5 3 11 6 6 6 13 6 4
30 27 26 26 24 24 22 21 21 18 18 19 18 17 17 15 13 16 15 13 13 17 24 26 26 14 14 17 23 11 5 5 3 2 1 2 5 2 2 2 4 3 4 1 2 2 9 15 16 7 8 9 15 8
31 29 26 28 25 26 25 23 21 22 22 21 21 18 17 17 18 17 18 16 15 5 4 9 9 14 13 13 13 20 29 15 5 5 4 2 3 4 2 4 7 3 6 7 2 3 11 8 16 20 25 23 16 10
29 27 28 28 27 27 26 23 22 21 20 21 23 22 19 19 18 16 17 19 19 15 4 10 27 20 16 21 26 22 21 22 22 7 3 2 4 3 3 2 3 2 5 3 3 8 8 15 25 21 8 7 7 3
29 27 27 28 27 28 30 26 25 23 22 21 18 19 19 19 20 17 11 21 23 21 5 3 9 21 19 15 13 13 20 17 16 5 4 5 6 4 3 2 5 19 24 21 5 6 12 11 9 7 10 11 10 10
27 27 26 27 26 25 26 27 26 24 22 22 19 19 21 22 20 15 6 4 17 21 4 4 6 5 6 5 13 15 14 13 10 6 7 5 5 4 2 3 13 21 16 21 19 6 10 16 9 10 11 12 7 9
26 27 26 27 26 26 26 25 24 22 19 20 21 21 19 21 21 21 12 4 11 20 4 3 4 6 6 4 4 7 8 14 10 6 4 4 3 5 3 4 10 19 16 15 20 14 11 9 11 7 6 7 9 9
28 28 27 26 26 27 28 26 24 23 23 21 20 18 16 21 13 24 15 7 19 10 6 4 2 3 3 3 4 6 8 2 5 3 3 5 3 2 5 7 10 13 11 16 15 11 11 13 14 11 10 11 10 8
27 27 27 28 29 27 26 27 25 26 21 18 20 14 9 12 12 26 11 9 14 9 7 5 7 3 3 6 3 2 4 2 2 4 5 2 2 11 9 7 8 11 14 16 15 18 18 17 16 15 14 11 8 5
29 29 29 28 27 27 30 28 28 23 19 28 14 8 29 32 16 10 5 4 4 3 8 7 19 4 6 2 3 2 1 1 0 2 2 2 2 3 7 8 9 13 15 11 9 9 9 9 11 11 10 9 9 6
28 29 30 30 30 30 27 27 21 30 26 25 18 34 26 7 6 5 4 3 5 5 7 6 8 15 5 5 3 1 1 1 4 1 3 3 2 6 7 9 11 15 15 12 12 11 11 10 9 9 9 8 5 5
30 29 28 27 26 27 27 29 36 34 33 38 17 8 8 5 5 7 8 4 4 5 10 9 3 8 7 4 3 2 2 4 1 1 0 2 3 6 9 10 13 13 13 14 13 11 11 10 8 8 7 6 5 4
20 19 20 24 28 33 31 28 29 44 29 7 8 7 4 5 5 4 3 4 8 5 18 18 4 3 4 2 2 3 3 1 2 2 2 1 4 7 8 10 12 13 15 15 14 13 12 12 10 8 6 6 5 4
18 19 22 27 29 27 31 31 47 31 5 5 5 5 4 4 3 6 7 6 1 8 21 9 5 3 1 3 1 2 3 3 1 3 2 1 4 8 9 10 11 12 14 14 13 10 9 10 10 9 7 5 3 2
25 23 26 30 31 34 32 37 33 13 5 4 5 2 5 4 2 4 7 5 4 12 11 5 3 3 1 4 3 2 2 4 2 1 2 2 5 8 9 10 11 12 13 13 12 11 11 9 8 8 6 4 1 1
37 27 32 37 41 44 37 28 18 7 5 3 4 9 8 12 8 4 4 3 4 4 2 3 4 5 1 2 2 3 3 2 4 3 4 6 7 9 9 10 10 12 12 11 12 12 11 10 8 6 4 2 1 2
34 39 50 49 51 42 29 10 7 5 6 8 4 5 14 10 6 9 6 6 3 3 3 2 3 3 2 3 1 2 5 5 6 5 6 6 5 7 9 10 10 11 11 9 9 11 11 9 6 3 2 1 3 5
50 47 47 49 38 18 6 5 4 5 5 6 8 9 11 11 15 10 8 10 11 10 10 6 5 2 1 2 2 5 6 8 9 10 7 3 4 7 9 8 10 9 8 8 8 9 9 6 4 3 1 1 2 6
41 41 37 33 21 6 6 5 5 7 4 4 6 7 7 8 7 12 13 12 10 7 8 4 1 1 2 3 3 4 5 7 8 6 6 6 6 7 8 8 7 7 7 7 6 6 5 4 3 3 2 2 3 7
31 23 24 16 12 10 6 5 5 6 8 7 9 5 6 11 9 10 11 11 10 6 4 6 6 4 1 3 5 4 4 3 2 4 6 7 7 7 7 7 8 8 8 7 6 5 4 4 4 3 1 2 4 6
25 24 20 12 7 5 6 6 10 9 6 8 6 5 6 4 5 6 6 13 6 6 4 4 4 3 2 3 3 2 2 4 5 5 5 5 3 4 7 7 7 7 6 5 5 4 3 2 2 1 2 5 6 7
19 11 7 5 5 5 5 5 4 4 4 5 5 4 3 3 3 5 6 5 4 8 5 4 6 3 3 2 2 2 4 5 5 5 6 6 5 5 6 6 5 5 5 4 2 1 1 3 3 4 5 6 8 10
6 5 5 4 5 3 5 3 4 5 5 3 3 3 3 4 5 5 3 3 5 5 7 8 5 3 3 3 4 5 6 6 6 5 5 6 5 6 6 6 6 5 3 1 3 4 4 5 5 5 6 8 10 12
5 9 5 5 5 4 4 3 3 3 3 2 3 2 3 4 3 2 2 2 5 7 6 7 3 2 3 2 3 5 4 5 5 7 7 7 6 6 7 9 10 10 9 6 6 5 6 6 6 6 7 8 9 9
6 9 5 3 4 4 2 3 3 3 3 2 2 3 4 3 3 2 2 2 3 4 4 4 5 7 9 7 3 2 3 5 5 4 6 5 5 4 4 5 6 6 8 8 6 5 5 5 5 5 5 5 5 5
4 3 6 7 3 6 5 8 7 5 4 2 1 3 3 4 2 1 5 3 5 5 3 2 0 2 5 7 8 9 8 4 2 4 4 3 3 3 2 3 3 4 3 3 4 4 4 2 3 3 4 4 5 4
5 6 4 7 9 9 4 3 3 2 1 2 4 4 4 5 2 3 3 4 3 2 4 6 4 2 1 3 2 4 6 7 6 5 5 4 3 2 3 3 4 5 4 1 1 2 2 2 2 3 4 4 4 5
6 5 7 6 7 8 8 3 1 2 2 2 4 2 3 4 8 11 9 6 2 0 2 2 5 6 3 2 1 2 4 2 5 4 2 4 3 6 8 5 3 2 4 4 3 2 3 4 4 4 3 3 4 4
4 4 6 5 4 4 7 6 5 7 8 11 11 21 21 17 12 8 5 2 1 3 2 2 3 3 3 1 1 2 1 2 2 2 2 3 3 5 7 7 5 2 2 3 3 2 2 2 2 2 3 3 3 4
5 5 7 7 6 13 18 21 21 20 22 24 25 21 13 9 8 6 4 5 5 5 3 1 2 3 3 2 2 2 2 2 1 1 2 3 4 5 5 5 5 5 4 3 2 1 1 2 2 3 3 3 3 4
6 6 6 5 6 16 9 6 9 12 9 7 6 5 5 3 3 3 2 3 5 4 1 2 2 2 2 2 1 2 2 2 3 4 5 5 5 5 5 5 5 4 3 2 2 2 1 1 2 2 2 2 2 3
20 22 15 11 6 5 4 5 4 4 3 3 2 2 2 2 3 4 4 1 1 2 3 5 4 4 5 5 4 3 3 3 3 3 3 4 4 5 4 4 3 2 3 3 2 2 2 2 2 2 2 2 3 4
Wind_Direction
227 231 246 239 235 238 235 230 224 219 229 234 236 240 229 219 217 221 231 232 226 250 273 276 279 257 284 281 241 298 337 308 1 1 23 305 260 305 307 275 294 301 253 159 144 175 263 325 304 156 22 257 271 308
239 237 236 232 228 234 214 208 219 232 236 234 236 240 236 230 220 223 229 236 234 237 262 270 279 273 254 266 271 259 246 273 268 97 26 285 290 293 302 312 294 277 285 254 181 211 323 329 280 187 293 287 303 303
227 232 228 224 224 216 221 223 226 225 228 231 239 239 236 242 229 223 232 238 237 239 272 272 277 295 269 261 256 241 256 230 229 190 227 268 274 293 293 285 283 286 287 294 264 24 332 327 324 287 218 281 311 321
221 223 240 229 221 218 220 216 226 232 234 238 240 235 239 234 228 228 234 236 237 242 267 279 282 268 264 263 248 243 242 245 258 289 250 209 255 230 274 282 295 261 315 331 345 1 327 330 319 320 316 309 303 273
233 233 238 223 218 221 219 224 231 235 240 243 241 237 236 228 226 227 235 235 236 226 279 290 298 286 265 247 257 252 245 243 243 243 233 237 254 277 238 273 264 235 10 331 292 288 258 262 295 314 341 52 121 125
225 226 224 214 220 224 223 226 230 236 243 240 234 229 224 220 221 220 228 237 225 227 258 293 295 284 280 250 257 241 230 235 218 203 224 241 253 259 264 256 352 358 339 338 295 290 337 2 54 45 77 76 68 53
222 221 216 222 224 222 225 232 240 243 238 226 228 223 221 212 217 212 194 217 209 197 239 282 284 276 318 197 217 230 226 214 209 213 219 230 258 249 268 269 348 355 3 22 26 21 14 27 35 49 45 17 39 41
224 223 218 223 228 231 235 235 240 236 226 225 223 220 221 210 222 219 201 197 184 178 193 260 269 304 216 195 176 189 185 192 202 212 215 215 233 213 236 57 13 0 357 21 14 28 23 38 30 4 6 7 2 13
219 225 227 230 234 240 240 234 227 226 220 219 217 213 208 207 218 194 190 214 176 186 193 214 234 258 193 140 213 221 199 178 190 200 211 194 197 235 63 48 32 14 9 336 349 351 7 13 9 12 351 340 336 346
232 234 237 239 241 237 235 218 224 227 225 206 189 173 190 171 162 169 162 185 190 205 234 220 205 260 264 175 220 243 197 190 200 212 165 231 98 82 64 48 23 8 359 350 359 1 355 355 360 357 359 356 345 341
237 239 241 239 236 225 225 233 216 209 188 172 167 172 141 137 136 166 189 187 216 223 216 225 205 192 234 162 201 213 290 79 244 249 193 211 117 71 37 27 358 0 356 0 352 332 333 336 341 347 358 0 344 342
241 241 238 234 228 231 225 207 203 190 176 169 145 135 132 128 159 161 182 199 200 224 194 187 208 204 229 195 113 238 176 26 249 187 226 155 87 39 17 358 354 349 352 356 351 346 344 346 347 334 333 332 327 324
237 238 233 225 212 187 185 168 179 180 147 132 128 162 151 169 169 184 183 194 201 207 182 171 172 161 200 182 88 114 190 232 335 26 244 66 84 9 4 355 346 345 353 355 357 353 348 345 342 336 335 330 318 300
203 183 173 168 162 161 175 167 171 143 138 137 153 139 179 182 215 190 182 169 207 204 171 163 127 145 126 82 123 158 243 267 251 247 195 104 11 357 356 348 350 354 356 357 355 352 347 347 349 342 335 326 312 296
195 177 171 176 171 172 174 165 149 155 117 107 139 161 187 187 107 134 140 125 93 172 159 121 84 101 60 99 195 139 187 239 216 221 204 63 345 346 349 353 356 354 354 356 0 0 350 342 341 343 346 341 322 283
185 181 184 174 172 166 158 150 157 146 65 57 57 99 144 107 66 73 106 108 115 142 133 88 109 65 160 142 165 184 193 230 243 197 111 356 354 356 358 354 353 355 356 2 8 9 4 354 355 358 353 355 353 220
147 166 165 160 160 158 157 142 139 64 72 62 38 64 79 74 71 74 77 56 111 151 124 130 159 204 186 106 123 19 175 246 149 99 19 359 354 359 358 356 359 1 358 3 15 15 10 3 356 347 352 47 94 168
133 145 154 156 156 151 136 126 84 73 76 56 73 43 73 81 85 51 38 43 96 91 77 87 87 70 86 153 244 293 14 30 58 1 324 308 323 342 344 345 346 346 340 343 351 357 354 349 344 5 39 102 151 152
135 146 154 154 145 126 85 68 65 91 80 87 90 78 77 77 62 64 70 76 93 111 106 57 68 81 174 59 39 21 21 12 349 341 339 294 309 333 341 334 330 335 332 328 328 332 341 350 4 8 3 189 188 161
135 141 145 147 140 85 89 82 91 94 105 109 108 79 75 71 57 55 62 71 78 56 53 48 102 55 97 73 11 327 321 325 327 338 328 293 295 322 332 331 332 333 332 329 329 336 343 349 357 348 310 241 199 171
139 128 145 141 90 71 87 110 86 101 112 100 112 84 76 66 47 39 34 32 60 39 58 59 69 105 100 336 327 338 339 344 23 333 334 324 294 295 318 330 326 306 313 320 319 318 315 313 310 312 292 184 170 164
119 125 99 86 75 76 77 57 109 104 80 130 101 77 73 57 41 33 42 46 60 31 40 34 72 125 23 34 44 52 8 327 328 327 326 329 290 302 325 328 321 307 295 291 294 307 318 356 15 83 142 146 151 154
101 93 76 67 88 78 121 126 88 94 97 138 107 79 57 73 74 53 70 60 65 27 44 94 130 96 52 98 48 11 11 6 356 1 2 1 349 344 345 343 342 329 315 293 293 335 94 79 94 121 138 140 141 141
106 69 54 62 63 87 129 70 80 91 98 73 79 102 101 118 98 67 75 70 32 49 67 131 144 91 53 38 44 29 28 20 1 356 20 19 16 23 23 32 28 22 6 83 109 110 101 98 105 122 132 140 143 145
88 18 32 22 43 74 69 50 41 63 79 75 87 117 119 117 78 68 86 97 46 58 65 52 54 17 34 77 59 41 35 35 34 51 59 50 46 48 52 53 55 52 51 68 83 95 104 109 114 123 132 144 147 150
72 23 48 23 7 76 44 84 73 101 91 77 68 72 76 79 70 68 80 103 71 72 75 68 58 60 60 58 72 51 65 59 53 53 61 43 34 33 48 58 58 50 35 30 43 78 97 101 110 126 140 150 158 168
75 8 49 38 74 85 80 68 62 68 66 82 22 53 68 69 92 102 110 108 93 84 91 106 135 59 66 60 64 64 61 65 56 73 63 44 47 44 16 1 15 40 23 8 31 46 51 77 109 125 133 137 140 148
73 45 74 14 63 49 91 59 54 66 73 44 71 50 110 151 167 108 135 163 154 97 62 58 63 70 63 63 97 91 69 64 58 57 65 70 79 77 58 34 18 11 4 321 197 158 131 135 139 142 137 135 141 149
64 88 84 41 63 55 41 78 93 75 29 77 109 117 102 97 121 131 129 141 121 315 325 2 32 36 22 26 30 219 222 336 8 346 8 62 59 51 44 25 1 22 40 40 63 117 157 157 150 145 150 153 156 165
71 48 93 61 60 48 28 33 86 97 99 110 104 112 102 105 112 101 91 87 201 232 243 268 321 5 13 346 32 61 152 227 315 337 351 352 27 11 1 7 24 56 75 65 62 77 108 135 171 200 207 205 214 224
84 80 72 61 74 97 100 95 92 95 99 107 118 109 108 110 110 95 73 61 44 35 19 286 287 293 294 308 289 251 253 299 321 346 337 321 315 312 318 336 348 358 10 9 334 292 251 227 202 207 217 223 223 219
53 74 117 101 136 146 100 76 72 90 92 89 82 105 106 117 112 154 124 42 22 11 84 115 61 57 54 48 26 356 315 289 286 292 297 305 307 307 307 310 315 324 318 278 268 287 338 125 173 204 235 250 250 229
95 99 105 89 123 171 145 126 105 116 116 109 106 124 104 112 138 171 179 207 58 79 102 105 101 86 75 61 44 30 28 15 5 350 337 319 307 304 311 317 318 332 338 326 300 246 239 251 285 298 281 274 264 269
Height
1417 1421 1425 1429 1432 1435 1438 1441 1444 1448 1452 1455 1458 1460 1462 1465 1466 1469 1471 1473 1475 1473 1467 1467 1467 1467 1466 1466 1466 1460 1458 1453 1451 1448 1453 1448 1440 1431 1428 1418 1421 1418 1410 1412 1419 1432 1425 1396 1393 1398 1397 1391 1389 1388
1410 1414 1418 1422 1426 1429 1432 1435 1440 1443 1447 1450 1453 1456 1459 1460 1462 1464 1467 1469 1470 1470 1465 1463 1461 1462 1462 1461 1463 1460 1457 1455 1451 1452 1453 1450 1445 1436 1431 1424 1421 1416 1415 1409 1410 1411 1400 1397 1396 1394 1397 1393 1390 1389
1401 1406 1411 1415 1419 1423 1426 1430 1434 1438 1442 1445 1448 1452 1455 1457 1458 1461 1463 1465 1466 1466 1462 1457 1453 1454 1453 1453 1456 1458 1454 1453 1452 1452 1452 1451 1450 1440 1437 1427 1422 1416 1412 1405 1407 1403 1402 1398 1393 1393 1393 1393 1391 1389
1393 1398 1403 1408 1412 1416 1420 1424 1429 1433 1436 1440 1443 1446 1450 1452 1455 1458 1459 1462 1464 1464 1461 1451 1449 1448 1449 1448 1448 1448 1450 1452 1452 1452 1451 1449 1447 1438 1433 1428 1422 1419 1412 1410 1402 1404 1400 1399 1395 1392 1389 1389 1389 1387
1386 1391 1396 1400 1405 1409 1414 1418 1423 1427 1430 1433 1437 1441 1444 1448 1451 1454 1456 1457 1459 1464 1458 1450 1446 1441 1441 1442 1441 1443 1444 1446 1449 1451 1447 1445 1441 1437 1431 1428 1420 1417 1413 1413 1408 1404 1404 1399 1392 1391 1387 1387 1387 1389
1379 1383 1388 1393 1398 1402 1407 1412 1416 1420 1424 1428 1431 1435 1439 1443 1447 1450 1452 1453 1454 1457 1459 1453 1442 1434 1435 1435 1437 1437 1439 1442 1444 1445 1444 1440 1437 1436 1430 1426 1419 1415 1411 1407 1405 1402 1399 1397 1393 1392 1390 1391 1390 1390
1371 1376 1380 1386 1390 1395 1400 1405 1409 1413 1417 1422 1426 1431 1435 1439 1442 1443 1447 1446 1446 1454 1456 1452 1441 1432 1429 1429 1432 1433 1435 1437 1440 1441 1440 1437 1434 1434 1432 1430 1423 1417 1414 1410 1405 1402 1402 1399 1398 1397 1395 1394 1392 1391
1364 1369 1374 1378 1383 1388 1393 1397 1401 1406 1411 1416 1421 1425 1430 1435 1439 1438 1443 1444 1446 1452 1455 1452 1442 1433 1428 1428 1430 1431 1431 1434 1434 1434 1434 1432 1431 1429 1425 1426 1424 1420 1416 1413 1412 1410 1409 1405 1402 1400 1399 1397 1394 1392
1357 1362 1366 1371 1375 1380 1384 1389 1394 1399 1405 1410 1417 1423 1427 1431 1432 1433 1442 1443 1445 1450 1448 1446 1441 1435 1427 1427 1429 1428 1426 1427 1429 1429 1428 1428 1424 1422 1425 1426 1425 1425 1423 1420 1416 1413 1410 1407 1404 1402 1401 1398 1396 1394
1350 1354 1358 1362 1366 1371 1375 1381 1386 1391 1397 1405 1413 1417 1418 1421 1428 1435 1442 1443 1443 1442 1441 1436 1433 1433 1428 1426 1426 1426 1423 1425 1425 1423 1423 1423 1422 1428 1428 1428 1427 1425 1422 1418 1414 1411 1410 1408 1406 1404 1401 1399 1398 1396
1342 1346 1349 1353 1357 1362 1367 1372 1377 1384 1390 1397 1404 1409 1413 1420 1428 1436 1438 1438 1436 1434 1430 1425 1424 1425 1424 1425 1425 1425 1424 1424 1425 1422 1422 1418 1421 1429 1430 1429 1427 1425 1422 1420 1418 1415 1413 1411 1408 1405 1403 1401 1398 1397
1332 1336 1339 1343 1348 1352 1356 1362 1369 1376 1382 1390 1396 1406 1413 1419 1424 1429 1431 1430 1428 1424 1417 1418 1419 1421 1422 1421 1422 1425 1424 1427 1426 1421 1417 1415 1430 1431 1430 1428 1426 1424 1421 1419 1416 1413 1410 1408 1406 1405 1402 1400 1399 1398
1322 1325 1328 1332 1337 1344 1351 1359 1365 1374 1380 1389 1398 1402 1406 1413 1415 1419 1419 1416 1416 1410 1409 1412 1415 1416 1420 1420 1422 1423 1423 1428 1421 1423 1416 1427 1431 1431 1429 1428 1426 1423 1421 1418 1415 1412 1410 1407 1405 1404 1402 1400 1399 1398
1313 1317 1322 1328 1335 1342 1350 1357 1366 1373 1378 1384 1390 1395 1399 1405 1402 1400 1400 1401 1401 1401 1404 1408 1411 1412 1415 1418 1421 1425 1423 1421 1419 1421 1421 1431 1431 1430 1429 1427 1425 1423 1420 1417 1414 1411 1409 1406 1405 1403 1402 1400 1400 1399
1310 1317 1323 1330 1337 1344 1351 1358 1366 1372 1374 1380 1384 1390 1393 1392 1393 1395 1397 1399 1400 1400 1403 1407 1410 1412 1415 1420 1419 1423 1420 1417 1422 1429 1432 1431 1431 1430 1428 1426 1424 1422 1420 1417 1414 1412 1410 1407 1405 1403 1402 1401 1400 1400
1306 1316 1322 1329 1337 1346 1352 1361 1367 1372 1377 1383 1386 1389 1389 1391 1394 1395 1397 1399 1400 1402 1404 1406 1411 1417 1416 1419 1417 1417 1419 1423 1434 1430 1430 1430 1430 1428 1427 1425 1423 1421 1420 1417 1415 1412 1410 1409 1406 1405 1403 1402 1402 1402
1306 1310 1320 1330 1338 1348 1357 1364 1370 1375 1383 1387 1391 1391 1391 1393 1397 1399 1399 1399 1400 1402 1404 1406 1409 1416 1415 1415 1423 1427 1436 1432 1429 1430 1430 1430 1429 1427 1426 1425 1423 1421 1420 1418 1416 1414 1412 1410 1408 1407 1405 1404 1404 1404
1311 1318 1324 1333 1342 1352 1360 1366 1374 1381 1389 1393 1394 1395 1396 1397 1400 1400 1400 1400 1400 1401 1403 1409 1413 1418 1429 1427 1435 1434 1432 1431 1430 1430 1430 1429 1428 1427 1426 1425 1423 1422 1420 1418 1417 1415 1413 1411 1409 1408 1407 1407 1407 1407
1321 1328 1336 1343 1350 1356 1365 1375 1379 1386 1394 1397 1399 1399 1399 1401 1403 1404 1403 1402 1402 1403 1406 1413 1424 1433 1435 1433 1433 1433 1433 1432 1431 1429 1428 1427 1427 1426 1426 1424 1423 1422 1420 1419 1417 1416 1414 1412 1411 1410 1410 1410 1409 1409
1334 1338 1343 1349 1354 1359 1371 1379 1382 1387 1395 1399 1401 1402 1404 1406 1407 1407 1406 1405 1405 1408 1416 1425 1432 1433 1433 1434 1433 1433 1432 1431 1430 1429 1428 1427 1427 1426 1425 1424 1422 1421 1420 1419 1418 1416 1415 1414 1413 1412 1412 1411 1411 1412
1342 1347 1349 1354 1358 1364 1373 1380 1385 1390 1395 1400 1403 1404 1408 1409 1410 1410 1410 1411 1413 1424 1431 1433 1434 1434 1434 1433 1433 1432 1431 1430 1430 1429 1428 1427 1426 1425 1424 1423 1422 1420 1420 1419 1418 1417 1416 1415 1414 1413 1413 1413 1414 1414
1347 1351 1354 1358 1364 1371 1378 1381 1384 1389 1396 1401 1404 1406 1410 1413 1415 1417 1419 1419 1430 1434 1434 1434 1434 1434 1434 1433 1433 1432 1432 1431 1430 1429 1428 1426 1425 1425 1424 1423 1422 1421 1420 1419 1418 1417 1417 1416 1415 1415 1415 1415 1416 1417
1351 1355 1359 1364 1369 1375 1385 1383 1386 1392 1398 1402 1404 1409 1414 1417 1420 1421 1426 1432 1436 1436 1435 1434 1435 1435 1435 1434 1434 1433 1432 1431 1429 1428 1428 1427 1426 1425 1424 1423 1422 1421 1420 1419 1419 1418 1418 1417 1417 1417 1418 1419 1420 1421
1355 1357 1364 1368 1372 1380 1383 1385 1388 1393 1398 1402 1406 1413 1416 1419 1422 1426 1433 1437 1439 1437 1436 1436 1436 1436 1436 1435 1433 1433 1432 1431 1431 1430 1429 1428 1427 1426 1425 1424 1423 1422 1421 1421 1420 1420 1420 1420 1420 1420 1421 1423 1424 1425
1358 1372 1373 1376 1378 1381 1386 1390 1393 1396 1402 1405 1410 1413 1415 1419 1425 1431 1435 1439 1439 1438 1438 1437 1436 1435 1435 1435 1435 1434 1434 1433 1432 1431 1431 1430 1429 1429 1428 1427 1426 1426 1425 1424 1423 1423 1423 1423 1423 1424 1425 1427 1428 1429
1372 1380 1381 1382 1384 1384 1389 1394 1397 1401 1404 1408 1411 1413 1416 1422 1431 1437 1438 1440 1439 1439 1439 1439 1438 1437 1436 1436 1435 1435 1435 1434 1434 1433 1433 1432 1432 1432 1432 1431 1430 1430 1429 1428 1427 1427 1426 1427 1427 1428 1429 1430 1431 1432
1382 1386 1386 1387 1387 1389 1395 1399 1401 1403 1410 1415 1415 1418 1423 1436 1440 1439 1440 1440 1440 1439 1439 1439 1439 1439 1439 1438 1437 1436 1436 1435 1435 1435 1434 1434 1434 1434 1434 1433 1432 1432 1431 1430 1430 1429 1429 1430 1430 1430 1431 1432 1432 1434
1386 1388 1391 1393 1393 1396 1401 1406 1411 1416 1416 1416 1418 1429 1436 1440 1440 1439 1440 1440 1441 1441 1441 1440 1440 1440 1440 1440 1439 1439 1438 1438 1437 1437 1437 1436 1435 1435 1435 1434 1434 1432 1431 1431 1431 1431 1431 1431 1432 1432 1433 1433 1434 1435
1390 1392 1394 1398 1400 1405 1411 1414 1416 1416 1417 1417 1423 1430 1433 1435 1437 1439 1441 1441 1442 1442 1442 1442 1441 1441 1440 1440 1440 1440 1440 1440 1440 1439 1438 1438 1437 1437 1436 1435 1434 1433 1433 1432 1432 1432 1432 1432 1433 1433 1434 1435 1435 1436
1394 1395 1398 1404 1409 1417 1418 1416 1416 1417 1417 1418 1422 1428 1433 1437 1440 1441 1442 1442 1442 1442 1442 1442 1442 1441 1441 1441 1441 1441 1440 1440 1440 1440 1440 1439 1439 1438 1437 1436 1435 1434 1434 1434 1433 1433 1433 1434 1434 1434 1435 1435 1436 1436
1395 1397 1403 1410 1418 1424 1423 1422 1422 1422 1423 1426 1430 1431 1435 1439 1442 1443 1443 1442 1442 1442 1442 1442 1442 1441 1441 1441 1441 1441 1441 1441 1441 1440 1440 1439 1439 1438 1438 1437 1437 1436 1435 1435 1434 1434 1434 1434 1434 1435 1435 1435 1435 1436
1399 1402 1407 1416 1423 1425 1425 1427 1428 1431 1434 1435 1436 1437 1439 1440 1441 1442 1442 1442 1442 1442 1442 1442 1442 1442 1442 1441 1441 1441 1441 1441 1440 1440 1439 1439 1438 1438 1437 1436 1436 1435 1435 1435 1435 1435 1435 1435 1435 1435 1435 1435 1435 1435
1408 1409 1412 1416 1422 1424 1426 1427 1430 1434 1435 1437 1438 1439 1439 1440 1441 1442 1442 1442 1443 1442 1443 1443 1443 1443 1443 1442 1442 1441 1441 1441 1440 1439 1439 1438 1437 1437 1437 1436 1436 1435 1435 1434 1434 1435 1435 1435 1435 1435 1435 1434 1434 1434